Tracking 31080 objects as of 20-Jul-2025
HD Live streaming from Space Station
objects crossing your sky now

SL-16 DEB

Track SL-16 DEB now!
10-day predictions


NORAD ID: 28357
Int'l Code: 2004-021F
Perigee: 846.9 km
Apogee: 1,141.7 km
Inclination: 71.1 °
Period: 104.8 minutes
Semi major axis: 7365 km
RCS: 0.0866 m2 (small)
Launch date: June 10, 2004
Source: Commonwealth of Independent States (former USSR) (CIS)
Launch site: TYURATAM MISSILE AND SPACE COMPLEX (TTMTR)

Note: This is SATELLITE DEBRIS
Your satellite tracking list
Your tracking list is empty




NASA's NSSDC Master Catalog

Two Line Element Set (TLE):
1 28357U 04021F   25201.07370509  .00000037  00000-0  74537-4 0  9993
2 28357  71.0721  49.9799 0200090 208.2619 313.6454 13.73463248 57279
Source of the keplerian elements: AFSPC